CW8078 Weather Reports


time (UTC)temp
C
wind
direction
speed
KPH
gust
KPH
rain 1hr
cm
rain 24hr
cm
rain mn
cm
humidity
%
barometer
mb
20220124173804 8 246 0.0 0.0 0.00 0.00 0.00 62 1006.7
20220124173305 8 244 0.0 9.7 0.00 0.00 0.00 62 1006.6
20220124170805 8 249 1.6 9.7 0.00 0.00 0.00 63 1007.0
20220124170305 8 241 0.0 4.8 0.00 0.00 0.00 64 1006.9
20220124163805 7 257 0.0 0.0 0.00 0.00 0.00 65 1006.5
20220124163305 7 263 0.0 11.3 0.00 0.00 0.00 66 1006.7
20220124160805 7 264 0.0 0.0 0.00 0.00 0.00 67 1006.7
20220124160305 7 234 0.0 4.8 0.00 0.00 0.00 68 1006.7
20220124153805 7 240 0.0 0.0 0.00 0.00 0.00 69 1006.3
20220124153305 7 240 0.0 0.0 0.00 0.00 0.00 68 1006.0
20220124150805 6 194 0.0 0.0 0.00 0.00 0.00 70 1005.9
20220124150305 6 194 0.0 0.0 0.00 0.00 0.00 70 1005.7
20220124143806 5 194 0.0 0.0 0.00 0.00 0.00 72 1005.7
20220124143306 5 194 0.0 0.0 0.00 0.00 0.00 73 1005.7
20220124140805 4 194 0.0 0.0 0.00 0.00 0.00 75 1005.6
20220124140304 3 194 0.0 0.0 0.00 0.00 0.00 75 1005.6
20220124133805 4 194 0.0 0.0 0.00 0.00 0.00 73 1005.4
20220124133304 4 194 0.0 0.0 0.00 0.00 0.00 73 1005.3
20220124130804 4 163 0.0 0.0 0.00 0.00 0.00 74 1005.3
20220124130305 4 200 0.0 0.0 0.00 0.00 0.00 73 1005.2
20220124123805 3 200 0.0 0.0 0.00 0.00 0.00 74 1005.2
20220124123304 3 200 0.0 0.0 0.00 0.00 0.00 73 1005.2
20220124120804 3 200 0.0 0.0 0.00 0.00 0.00 72 1005.4
20220124120304 3 200 0.0 4.8 0.00 0.00 0.00 72 1005.4
20220124113805 3 201 0.0 0.0 0.00 0.00 0.00 73 1005.4
20220124113304 3 201 0.0 0.0 0.00 0.00 0.00 73 1005.3
20220124110804 3 185 1.6 4.8 0.00 0.00 0.00 72 1005.3
20220124110305 3 185 1.6 4.8 0.00 0.00 0.00 72 1005.3
20220124103805 3 200 0.0 0.0 0.00 0.00 0.00 71 1005.5
20220124103305 3 201 0.0 4.8 0.00 0.00 0.00 71 1005.6
20220124100805 3 211 0.0 0.0 0.00 0.00 0.00 71 1006.2
20220124100305 2 205 1.6 8.0 0.00 0.00 0.00 71 1006.2
20220124093804 2 187 1.6 9.7 0.00 0.00 0.00 73 1006.5
20220124093305 1 196 1.6 9.7 0.00 0.00 0.00 74 1006.5
20220124090804 0 169 0.0 0.0 0.00 0.00 0.00 72 1007.2
20220124090305 0 169 0.0 0.0 0.00 0.00 0.00 72 1007.3
20220124083804 0 179 1.6 4.8 0.00 0.00 0.00 70 1007.7
20220124083305 0 174 0.0 8.0 0.00 0.00 0.00 70 1007.7
20220124080806 0 181 0.0 0.0 0.00 0.00 0.00 70 1008.3
20220124080304 0 174 0.0 11.3 0.00 0.00 0.00 70 1008.4
20220124073804 -1 178 0.0 0.0 0.00 0.00 0.00 70 1008.9
20220124073306 -1 182 0.0 8.0 0.00 0.00 0.00 71 1008.9
20220124070805 -1 178 0.0 0.0 0.00 0.00 0.00 70 1009.5
20220124070306 -1 178 0.0 9.7 0.00 0.00 0.00 70 1009.6
20220124063805 -1 185 0.0 9.7 0.00 0.00 0.00 70 1010.1
20220124063304 -1 158 0.0 9.7 0.00 0.00 0.00 70 1010.2
20220124060816 -2 162 0.0 9.7 0.00 0.00 0.00 71 1010.8
20220124060304 -2 173 1.6 14.5 0.00 0.00 0.00 71 1010.9
20220124053804 -2 138 0.0 0.0 0.00 0.00 0.00 71 1011.6
20220124053305 -2 160 0.0 11.3 0.00 0.00 0.00 72 1011.7
20220124050805 -2 169 1.6 11.3 0.00 0.00 0.00 72 1012.1
20220124050306 -2 160 0.0 8.0 0.00 0.00 0.00 73 1012.2
20220124043804 -2 159 0.0 0.0 0.00 0.00 0.00 73 1012.8
20220124043304 -2 140 0.0 0.0 0.00 0.00 0.00 73 1013.0
20220124040805 -2 158 0.0 0.0 0.00 0.00 0.00 74 1013.6
20220124040304 -2 157 0.0 0.0 0.00 0.00 0.00 73 1013.6
20220124033804 -3 157 0.0 0.0 0.00 0.00 0.00 74 1013.9
20220124033305 -3 157 0.0 1.6 0.00 0.00 0.00 73 1014.1
20220124030804 -3 157 0.0 0.0 0.00 0.00 0.00 73 1014.5
20220124030304 -3 157 0.0 0.0 0.00 0.00 0.00 74 1014.5
20220124023804 -3 101 0.0 0.0 0.00 0.00 0.00 74 1014.8
20220124023305 -3 101 0.0 0.0 0.00 0.00 0.00 74 1015.0
20220124020804 -3 101 0.0 0.0 0.00 0.00 0.00 74 1015.1
20220124020305 -3 38 0.0 0.0 0.00 0.00 0.00 74 1015.1
20220124013805 -3 38 0.0 0.0 0.00 0.00 0.00 74 1015.5
20220124013305 -3 38 0.0 0.0 0.00 0.00 0.00 73 1015.4
20220124010805 -3 38 0.0 0.0 0.00 0.00 0.00 74 1016.1
20220124010305 -3 38 0.0 0.0 0.00 0.00 0.00 73 1016.3
20220124003805 -2 36 0.0 0.0 0.00 0.00 0.00 72 1016.7
20220124003305 -2 36 0.0 0.0 0.00 0.00 0.00 71 1016.6
20220124000804 -2 36 0.0 0.0 0.00 0.00 0.00 71 1016.6
20220124000304 -2 36 0.0 0.0 0.00 0.00 0.00 71 1016.6
20220123233805 -2 36 0.0 0.0 0.00 0.00 0.00 69 1016.6
20220123233306 -1 36 0.0 0.0 0.00 0.00 0.00 69 1016.7
20220123230805 -1 315 0.0 0.0 0.00 0.00 0.00 67 1016.9
20220123230304 -1 10 0.0 4.8 0.00 0.00 0.00 67 1016.7
20220123223804 -1 351 0.0 0.0 0.00 0.00 0.00 66 1016.8
20220123223305 -1 17 0.0 12.9 0.00 0.00 0.00 66 1016.9
20220123220804 0 345 0.0 0.0 0.00 0.00 0.00 65 1017.1
20220123220305 0 7 0.0 11.3 0.00 0.00 0.00 66 1017.0
20220123213804 0 323 0.0 1.6 0.00 0.00 0.00 64 1016.6
20220123213304 0 0 1.6 11.3 0.00 0.00 0.00 63 1016.6
20220123210805 0 2 0.0 16.1 0.00 0.00 0.00 62 1015.8
20220123210305 0 20 1.6 14.5 0.00 0.00 0.00 62 1016.0
20220123203804 1 353 0.0 0.0 0.00 0.00 0.00 61 1016.8
20220123203304 1 327 0.0 12.9 0.00 0.00 0.00 61 1016.7
20220123200804 1 26 1.6 20.9 0.00 0.00 0.00 61 1016.5
20220123200305 1 285 1.6 12.9 0.00 0.00 0.00 64 1016.5
20220123193805 1 308 0.0 8.0 0.00 0.00 0.00 63 1017.1
20220123193304 1 346 3.2 19.3 0.00 0.00 0.00 62 1017.0
20220123190804 1 298 0.0 4.8 0.00 0.00 0.00 62 1017.7
20220123190305 1 352 0.0 20.9 0.00 0.00 0.00 61 1017.9
20220123183804 1 341 1.6 14.5 0.00 0.00 0.00 60 1018.0
20220123183304 1 349 0.0 24.1 0.00 0.00 0.00 62 1018.0
20220123180804 1 345 4.8 19.3 0.00 0.00 0.00 64 1018.5
20220123180305 1 351 3.2 20.9 0.00 0.00 0.00 64 1018.5